COSMOS 2491 DEB *, 45128

Orbit data source: Space-Track

COSMOS 2491 DEB *, 45128 is space debris in LEO originally from a launch on Wed, 25 Dec 2013 UTC launched from the Plesetsk Missile And Space Complex (PKMTR). Debris objects in space refer to the collection of defunct objects orbiting the Earth. Examples of debris include non-operational satellites, rocket bodies, and fragments generated from explosions, collisions, or faulty payload assembly.

Loading next visibility...
Identifier
45128, 2013-076AA
Orbit
LEO
Last TLE update
5 hours ago
Origin
Manufacturer
TsNIIKhM
Mission
Spacecraft
Bus & Motor
Unknown
Mass
Unknown
Launch date (UTC)
2013-12-25 (12 years ago)
Launch vehicle
Unknown
Launch site
Plesetsk Missile And Space Complex (PKMTR)
Object type
Payload
Rocket body
Debris
Shape & HBR
Unknown
Radar Cross Section
Small (<0.1 m²)

Expand to show TLE details & history

TLE from 5 hours ago
0 COSMOS 2491 DEB *
1 45128U 13076AA  25190.14969531  .00003038  00000-0  98343-3 0  9996
2 45128  81.2101 351.5899 0021835 187.6297 172.4561 14.38717890283124
Epoch: 2025-07-09T03:35Z
TLE epoch observation values (Epoch: 2025-07-09T03:35:33.674Z)
Latitude
-0.00002°
Longitude
10.36512°
Altitude
781.136 km
Speed
7.455 km/s
True Right ascension
23h 26m 21s
True Declination
0° 00' 00"
Sunlit
Object was in daylight at epoch
Visualization orbit readout
Latitude
38.55971°
Longitude
17.1862°
Altitude
781.319 km
Speed
7.46 km/s
Apparent Right ascension
03h 47m 34s
Apparent Declination
5° 16' 34"
Sunlit
Object is in daylight
Visualization observer readout
Local Sidereal Time
20:56:35
Azimuth
77.715° E
Elevation
-6.286°
Doppler factor
1
Orbital elements
Apogee altitude
775.461 km
Perigee altitude
744.289 km
Semi-major axis
7,138.012 km
Eccentricity
0.00218
Inclination
81.2101°
RAAN
351.5899°
Arg. of periapsis
187.6297°
True anomaly
Unknown
Mean anomaly
172.4561°
Eccentric anomaly
Unknown
Mean motion
3.59896 °/min
Orbital period
100.03 mins
BSTAR
0.00098343
Loading maneuver chart data...
Loading SW <> Apogee altitude chart data...
Loading historical data...
Loading historical data...
Loading historical data...
Loading historical data...
Loading historical data...
Loading historical data...
Loading historical data...

COSMOS 2491 DEB * Visibility forecast

Observer location: undefined°, undefined°

Span
Click to sort rows by Start time (UTC) header in descending order
Start Az.
Max El. time (UTC)
Max El. Az.
Max El.
End time (UTC)
End Az.
5 mins2025-07-09 10:24:52.112Z116.209° SE2025-07-09 10:26:52.112Z91.454° ESE15.674°2025-07-09 10:29:52.112Z53.612° ENE
9 mins2025-07-09 12:03:52.112Z208.871° SW2025-07-09 12:07:52.112Z285.558° WNW38.978°2025-07-09 12:12:52.112Z359.901° N
9 mins2025-07-09 22:31:52.112Z353.892° N2025-07-09 22:35:52.112Z62.995° ENE44.544°2025-07-09 22:40:52.112Z168.081° S
|